When you browse on this site, cookies collect data to enhance your experience and personalize the content and advertising you see.
Visit our Privacy Policy to learn more. By continuing to use the site, you agree to this use of cookies and data.
  • In Hungary
  • List of Countries
  • For 7 days
  • Water Temperature
  • Weather Map
  • News
  • Weather Widgets
  • user-avatar
    Login

    Hourly Weather Tatarskaya Bagana

    Today, 16 October, Wednesday

    Time Temperature Precipitation Wind Pressure Humidity
    00:00 +2°C° 0 mm 5 mps 748 mmHg 69%
    01:00 +2°C° 0 mm 5 mps 749 mmHg 74%
    02:00 +2°C° 0 mm 6 mps 749 mmHg 78%
    03:00 +2°C° 0 mm 5 mps 750 mmHg 78%
    04:00 +2°C° 0.1 mm 5 mps 751 mmHg 81%
    05:00 +1°C° 0.1 mm 6 mps 751 mmHg 83%
    06:00 +1°C° 0.1 mm 6 mps 752 mmHg 86%
    07:00 +1°C° 0 mm 6 mps 752 mmHg 83%
    08:00 +2°C° 0 mm 5 mps 753 mmHg 81%
    09:00 +2°C° 0 mm 5 mps 753 mmHg 78%
    10:00 +2°C° 0 mm 5 mps 754 mmHg 76%
    11:00 +3°C° 0 mm 5 mps 754 mmHg 73%
    12:00 +3°C° 0 mm 5 mps 754 mmHg 71%
    13:00 +3°C° 0 mm 5 mps 755 mmHg 71%
    14:00 +4°C° 0 mm 4 mps 755 mmHg 71%
    15:00 +4°C° 0 mm 4 mps 756 mmHg 71%
    16:00 +3°C° 0 mm 4 mps 756 mmHg 73%
    17:00 +3°C° 0 mm 3 mps 756 mmHg 75%
    18:00 +2°C° 0 mm 3 mps 756 mmHg 77%
    19:00 +3°C° 0 mm 2 mps 757 mmHg 79%
    20:00 +2°C° 0 mm 2 mps 757 mmHg 81%
    21:00 +2°C° 0 mm 2 mps 757 mmHg 82%
    22:00 +2°C° 0 mm 2 mps 757 mmHg 84%
    23:00 +3°C° 0 mm 1 mps 757 mmHg 85%

    Tomorrow, 17 October, Thursday

    Time Temperature Precipitation Wind Pressure Humidity
    00:00 +2°C° 0 mm 1 mps 757 mmHg 86%
    01:00 +1°C° 0 mm 2 mps 757 mmHg 86%
    02:00 +2°C° 0 mm 2 mps 757 mmHg 85%
    03:00 +2°C° 0 mm 2 mps 757 mmHg 85%
    04:00 +2°C° 0 mm 2 mps 757 mmHg 85%
    05:00 +1°C° 0 mm 3 mps 757 mmHg 85%
    06:00 +1°C° 0 mm 3 mps 756 mmHg 85%
    07:00 0°C° 0.2 mm 4 mps 756 mmHg 87%
    08:00 0°C° 0.2 mm 4 mps 755 mmHg 88%
    09:00 +1°C° 0.2 mm 5 mps 755 mmHg 90%
    10:00 +2°C° 0 mm 5 mps 754 mmHg 85%
    11:00 +2°C° 0 mm 6 mps 754 mmHg 80%
    12:00 +3°C° 0 mm 7 mps 753 mmHg 75%
    13:00 +4°C° 0 mm 7 mps 753 mmHg 73%
    14:00 +4°C° 0 mm 7 mps 752 mmHg 71%
    15:00 +5°C° 0 mm 7 mps 751 mmHg 69%
    16:00 +5°C° 0 mm 6 mps 751 mmHg 70%
    17:00 +4°C° 0 mm 6 mps 750 mmHg 71%
    18:00 +5°C° 0 mm 5 mps 750 mmHg 73%
    19:00 +4°C° 0 mm 6 mps 750 mmHg 73%
    20:00 +4°C° 0 mm 6 mps 750 mmHg 74%
    21:00 +4°C° 0 mm 6 mps 749 mmHg 75%
    22:00 +4°C° 0 mm 6 mps 749 mmHg 76%
    23:00 +4°C° 0 mm 6 mps 749 mmHg 78%

    Day after tomorrow, 18 October, Friday

    Time Temperature Precipitation Wind Pressure Humidity
    00:00 +4°C° 0 mm 6 mps 748 mmHg 79%
    01:00 +5°C° 0 mm 5 mps 748 mmHg 80%
    02:00 +5°C° 0 mm 5 mps 748 mmHg 81%
    03:00 +5°C° 0 mm 5 mps 748 mmHg 81%
    04:00 +5°C° 0 mm 5 mps 747 mmHg 82%
    05:00 +5°C° 0 mm 5 mps 747 mmHg 82%
    06:00 +5°C° 0 mm 5 mps 746 mmHg 82%
    07:00 +5°C° 0 mm 5 mps 746 mmHg 82%
    08:00 +6°C° 0 mm 5 mps 746 mmHg 81%
    09:00 +6°C° 0 mm 5 mps 746 mmHg 81%
    10:00 +7°C° 0 mm 4 mps 746 mmHg 81%
    11:00 +8°C° 0 mm 4 mps 745 mmHg 81%
    12:00 +8°C° 0 mm 4 mps 745 mmHg 81%
    13:00 +9°C° 0.8 mm 3 mps 745 mmHg 86%
    14:00 +9°C° 0.8 mm 3 mps 745 mmHg 90%
    15:00 +9°C° 0.8 mm 3 mps 745 mmHg 95%
    16:00 +8°C° 0.5 mm 3 mps 745 mmHg 96%
    17:00 +8°C° 0.5 mm 2 mps 745 mmHg 97%
    18:00 +8°C° 0.5 mm 2 mps 746 mmHg 98%
    19:00 +7°C° 0 mm 3 mps 746 mmHg 96%
    20:00 +6°C° 0 mm 4 mps 747 mmHg 93%
    21:00 +4°C° 0 mm 6 mps 747 mmHg 91%
    22:00 +3°C° 0 mm 5 mps 748 mmHg 90%
    23:00 +3°C° 0 mm 5 mps 748 mmHg 89%

    19 October, Saturday

    Time Temperature Precipitation Wind Pressure Humidity
    00:00 +2°C° 0 mm 5 mps 749 mmHg 88%
    01:00 +2°C° 0 mm 5 mps 749 mmHg 88%
    02:00 +2°C° 0 mm 5 mps 750 mmHg 87%
    03:00 +2°C° 0 mm 5 mps 750 mmHg 87%
    04:00 +1°C° 0 mm 5 mps 750 mmHg 87%
    05:00 +1°C° 0 mm 5 mps 751 mmHg 87%
    06:00 0°C° 0 mm 5 mps 751 mmHg 86%
    07:00 0°C° 0 mm 5 mps 752 mmHg 85%
    08:00 0°C° 0 mm 5 mps 752 mmHg 84%
    09:00 +1°C° 0 mm 4 mps 753 mmHg 83%
    10:00 +1°C° 0 mm 4 mps 753 mmHg 80%
    11:00 +3°C° 0 mm 4 mps 753 mmHg 77%
    12:00 +3°C° 0 mm 4 mps 754 mmHg 74%
    13:00 +3°C° 0 mm 4 mps 754 mmHg 74%
    14:00 +3°C° 0 mm 4 mps 754 mmHg 74%
    15:00 +3°C° 0 mm 3 mps 754 mmHg 74%
    16:00 +3°C° 0 mm 3 mps 754 mmHg 75%
    17:00 +3°C° 0 mm 3 mps 755 mmHg 76%
    18:00 +2°C° 0 mm 3 mps 755 mmHg 77%
    19:00 +3°C° 0 mm 2 mps 755 mmHg 77%
    20:00 +3°C° 0 mm 2 mps 755 mmHg 77%
    21:00 +3°C° 0 mm 2 mps 756 mmHg 77%
    22:00 +4°C° 0 mm 1 mps 756 mmHg 78%
    23:00 +4°C° 0 mm 1 mps 756 mmHg 79%

    20 October, Sunday

    Time Temperature Precipitation Wind Pressure Humidity
    00:00 +4°C° 0 mm 1 mps 756 mmHg 79%
    01:00 +4°C° 0 mm 1 mps 756 mmHg 79%
    02:00 +3°C° 0 mm 0 mps 756 mmHg 79%
    03:00 +3°C° 0 mm 0 mps 756 mmHg 79%
    04:00 +2°C° 0 mm 0 mps 756 mmHg 80%
    05:00 +2°C° 0 mm 0 mps 756 mmHg 80%
    06:00 +2°C° 0 mm 0 mps 756 mmHg 81%
    07:00 +3°C° 0 mm 1 mps 756 mmHg 78%
    08:00 +4°C° 0 mm 1 mps 756 mmHg 76%
    09:00 +4°C° 0 mm 1 mps 756 mmHg 73%
    10:00 +4°C° 0 mm 2 mps 756 mmHg 70%
    11:00 +5°C° 0 mm 2 mps 756 mmHg 68%
    12:00 +6°C° 0 mm 2 mps 756 mmHg 66%
    13:00 +5°C° 0 mm 3 mps 756 mmHg 69%
    14:00 +5°C° 0 mm 3 mps 756 mmHg 71%
    15:00 +5°C° 0 mm 3 mps 756 mmHg 74%
    16:00 +5°C° 0 mm 4 mps 755 mmHg 79%
    17:00 +4°C° 0 mm 4 mps 755 mmHg 83%
    18:00 +4°C° 0 mm 4 mps 755 mmHg 87%
    19:00 +4°C° 0 mm 4 mps 755 mmHg 89%
    20:00 +3°C° 0 mm 5 mps 755 mmHg 90%
    21:00 +5°C° 0 mm 5 mps 754 mmHg 91%
    22:00 +5°C° 0 mm 5 mps 754 mmHg 91%
    23:00 +5°C° 0 mm 5 mps 754 mmHg 92%

    21 October, Monday

    Time Temperature Precipitation Wind Pressure Humidity
    00:00 +6°C° 0 mm 5 mps 754 mmHg 92%
    01:00 +6°C° 0.3 mm 5 mps 754 mmHg 93%
    02:00 +6°C° 0.3 mm 5 mps 754 mmHg 94%
    03:00 +7°C° 0.3 mm 4 mps 754 mmHg 96%
    04:00 +7°C° 0.2 mm 4 mps 754 mmHg 96%
    05:00 +7°C° 0.2 mm 4 mps 754 mmHg 97%
    06:00 +8°C° 0.2 mm 3 mps 754 mmHg 97%
    07:00 +9°C° 0 mm 3 mps 754 mmHg 97%
    08:00 +9°C° 0 mm 3 mps 754 mmHg 97%
    09:00 +9°C° 0 mm 2 mps 754 mmHg 96%
    10:00 +10°C° 0 mm 2 mps 754 mmHg 94%
    11:00 +11°C° 0 mm 1 mps 754 mmHg 93%
    12:00 +11°C° 0 mm 1 mps 754 mmHg 91%
    13:00 +11°C° 0 mm 1 mps 754 mmHg 92%
    14:00 +11°C° 0 mm 1 mps 754 mmHg 93%
    15:00 +10°C° 0 mm 2 mps 753 mmHg 94%
    16:00 +10°C° 0 mm 2 mps 753 mmHg 94%
    17:00 +10°C° 0 mm 3 mps 753 mmHg 94%
    18:00 +10°C° 0 mm 3 mps 752 mmHg 94%
    19:00 +10°C° 0 mm 4 mps 752 mmHg 93%
    20:00 +10°C° 0 mm 4 mps 751 mmHg 91%
    21:00 +9°C° 0 mm 5 mps 751 mmHg 90%
    22:00 +9°C° 0 mm 5 mps 750 mmHg 90%
    23:00 +9°C° 0 mm 6 mps 749 mmHg 89%
    Show more